Flag for U.S.A. Weather past 2 weeks in Ocala, Florida, U.S.A.

Now
82 °F

Scattered clouds.


Feels Like: 83 °F
Forecast: 60 / 80 °F
Wind: 5 mph from Northeast

Location: Ocala Municipal

Current Time: Mar 2, 2015 at 4:28:33 PM

Latest Report: Mar 2, 2015 at 3:50 PM


Visibility: 10 mi

Pressure: 30.21 "Hg

Humidity: 51%

Dew point: 63 °F

Location of OcalaLocation

Historic Weather in Ocala — Graph

°F

Ocala temperature yesterday

Maximum temperature yesterday: 79 °F (at 3:50 PM)
Minimum temperature yesterday: 55 °F (at 12:15 AM)
Average temperature yesterday: 63 °F

Past Weeks' High & Low Weather Summary

 TemperatureHumidityPressure
High82 °F (Mar 2, 2:50 PM)94% (Feb 17, 12:50 PM)30.47 "Hg (Feb 17, 12:50 PM)
Low23 °F (Feb 20, 6:50 AM)14% (Feb 20, 3:50 PM)29.62 "Hg (Feb 26, 1:55 AM)
Average56 °F73%30.15 "Hg
* Reported Feb 15 2:50 PM — Mar 2 2:50 PM, Ocala, Weather by CustomWeather, © 2015

Note: Actual official high and low records may vary slightly from our data, if they occured in-between our weather recording intervals... More about our weather records

Advertising

Ocala weather history for previous 24 hours

 ConditionsComfort  
Time TempWeatherWind HumidityBarometerVisibility
2:50 PM
Mon, Mar 2
82 °FScattered clouds.No wind51%30.22 "Hg10 mi
1:50 PM79 °FScattered clouds.3 mph61%30.25 "Hg10 mi
12:50 PM79 °FSunny.No wind61%30.28 "Hg10 mi
11:50 AM73 °FScattered clouds.No wind74%30.32 "Hg10 mi
10:50 AM70 °FFog.5 mph78%30.33 "Hg6 mi
9:50 AM64 °FFog.No wind88%30.32 "Hg3 mi
8:50 AM63 °FFog.No wind94%30.32 "Hg1 mi
7:50 AM61 °FFog.No wind94%30.31 "Hg1 mi
6:50 AM61 °FFog.No wind94%30.31 "Hg0 mi
6:35 AM61 °FLow clouds.3 mph94%30.31 "Hg1 mi
6:15 AM63 °FLow clouds.3 mph88%30.31 "Hg1 mi
5:55 AM63 °FLow clouds.6 mph94%30.31 "Hg1 mi
5:35 AM63 °FLow clouds.3 mph94%30.30 "Hg1 mi
5:15 AM63 °FLow clouds.3 mph94%30.30 "Hg1 mi
4:55 AM63 °FLow clouds.5 mph94%30.30 "Hg1 mi
4:35 AM64 °FLow clouds.3 mph94%30.30 "Hg1 mi
4:15 AM64 °FLow clouds.No wind94%30.30 "Hg0 mi
3:55 AM64 °FLow clouds.No wind94%30.29 "Hg1 mi
3:35 AM64 °FLow clouds.No wind94%30.30 "Hg1 mi
3:15 AM64 °FLow clouds.5 mph94%30.30 "Hg1 mi
2:55 AM64 °FLow clouds.3 mph94%30.30 "Hg1 mi
2:35 AM64 °FLow clouds.3 mph94%30.30 "Hg1 mi
2:15 AM64 °FLow clouds.3 mph94%30.31 "Hg1 mi
1:55 AM64 °FLow clouds.No wind94%30.32 "Hg8 mi
1:35 AM64 °FLow clouds.5 mph94%30.32 "Hg10 mi
1:15 AM64 °FLow clouds.3 mph94%30.33 "Hg10 mi
12:55 AM64 °FLow clouds.3 mph94%30.33 "Hg10 mi
12:35 AM66 °FLow clouds.3 mph88%30.34 "Hg10 mi
12:15 AM66 °FLow clouds.5 mph88%30.34 "Hg10 mi
11:55 PM
Sun, Mar 1
66 °FLow clouds.3 mph88%30.34 "Hg10 mi
11:35 PM66 °FLow clouds.5 mph88%30.35 "Hg10 mi
11:15 PM66 °FLow clouds.3 mph88%30.35 "Hg10 mi
10:55 PM66 °FPassing clouds.5 mph88%30.34 "Hg10 mi
10:35 PM66 °FPassing clouds.5 mph88%30.34 "Hg10 mi
9:55 PM68 °FOvercast.5 mph83%30.34 "Hg10 mi
9:35 PM70 °FMostly cloudy.3 mph78%30.34 "Hg10 mi
9:15 PM70 °FOvercast.6 mph83%30.34 "Hg10 mi
8:55 PM70 °FPartly cloudy.8 mph83%30.33 "Hg10 mi
8:35 PM72 °FOvercast.7 mph78%30.32 "Hg10 mi
8:15 PM72 °FMostly cloudy.6 mph78%30.32 "Hg10 mi
7:55 PM72 °FPassing clouds.5 mph78%30.31 "Hg10 mi
6:50 PM73 °FPassing clouds.5 mph74%30.30 "Hg10 mi
5:50 PM77 °FPassing clouds.5 mph69%30.29 "Hg10 mi
4:50 PM77 °FScattered clouds.6 mph65%30.28 "Hg10 mi
Weather by CustomWeather, © 2015

See weather overviewHow to use our weather pages